| time (UTC) | temp F | wind direction | speed knots | gust knots | rain 1hr in | rain 24hr in | rain mn in | humidity % | barometer mb |
| 20260509141503 | 59 | 0 | 0.0 | 0.0 | 0.00 | 0.00 | 0.00 | 57 | 1018.3 |
| 20260509141002 | 58 | 0 | 0.0 | 0.0 | 0.00 | 0.00 | 0.00 | 58 | 1018.3 |
| 20260509140502 | 57 | 0 | 0.0 | 0.0 | 0.00 | 0.00 | 0.00 | 59 | 1018.2 |
| 20260509140002 | 56 | 0 | 0.0 | 0.0 | 0.00 | 0.00 | 0.00 | 60 | 1018.3 |
| 20260509135502 | 56 | 0 | 0.0 | 0.0 | 0.00 | 0.00 | 0.00 | 61 | 1018.2 |
| 20260509135003 | 56 | 0 | 0.0 | 0.0 | 0.00 | 0.00 | 0.00 | 61 | 1018.2 |
| 20260509134502 | 55 | 0 | 0.0 | 0.0 | 0.00 | 0.00 | 0.00 | 62 | 1018.3 |
| 20260509134002 | 54 | 0 | 0.0 | 0.0 | 0.00 | 0.00 | 0.00 | 64 | 1018.3 |
| 20260509133503 | 53 | 0 | 0.0 | 0.0 | 0.00 | 0.00 | 0.00 | 65 | 1018.3 |
| 20260509132502 | 52 | 0 | 0.0 | 0.0 | 0.00 | 0.00 | 0.00 | 65 | 1018.4 |
| 20260509132003 | 52 | 0 | 0.0 | 0.0 | 0.00 | 0.00 | 0.00 | 65 | 1018.3 |
| 20260509131503 | 52 | 0 | 0.0 | 0.0 | 0.00 | 0.00 | 0.00 | 64 | 1018.3 |
| 20260509131003 | 53 | 0 | 0.0 | 0.0 | 0.00 | 0.00 | 0.00 | 64 | 1018.3 |
| 20260509130503 | 53 | 0 | 0.0 | 0.0 | 0.00 | 0.00 | 0.00 | 65 | 1018.3 |
| 20260509125503 | 52 | 0 | 0.0 | 0.0 | 0.00 | 0.00 | 0.00 | 64 | 1018.3 |
| 20260509125003 | 53 | 0 | 0.0 | 0.0 | 0.00 | 0.00 | 0.00 | 63 | 1018.2 |
| 20260509124502 | 53 | 0 | 0.0 | 0.0 | 0.00 | 0.00 | 0.00 | 62 | 1018.1 |
| 20260509124003 | 53 | 0 | 0.0 | 0.0 | 0.00 | 0.00 | 0.00 | 62 | 1018.1 |
| 20260509123503 | 53 | 0 | 0.0 | 0.0 | 0.00 | 0.00 | 0.00 | 61 | 1018.0 |
| 20260509123002 | 54 | 299 | 0.9 | 1.7 | 0.00 | 0.00 | 0.00 | 61 | 1018.1 |
| 20260509122503 | 53 | 298 | 0.0 | 1.7 | 0.00 | 0.00 | 0.00 | 61 | 1018.0 |
| 20260509122003 | 54 | 292 | 0.0 | 1.7 | 0.00 | 0.00 | 0.00 | 59 | 1018.0 |
| 20260509121503 | 54 | 0 | 0.0 | 0.0 | 0.00 | 0.00 | 0.00 | 59 | 1018.0 |
| 20260509121003 | 54 | 0 | 0.9 | 0.0 | 0.00 | 0.00 | 0.00 | 60 | 1017.9 |
| 20260509120003 | 54 | 289 | 0.0 | 1.7 | 0.00 | 0.00 | 0.00 | 58 | 1017.8 |
| 20260509115504 | 54 | 289 | 0.0 | 0.9 | 0.00 | 0.00 | 0.00 | 58 | 1017.9 |
| 20260509115003 | 55 | 0 | 0.0 | 0.0 | 0.00 | 0.00 | 0.00 | 57 | 1017.8 |
| 20260509114503 | 55 | 0 | 0.0 | 0.0 | 0.00 | 0.00 | 0.00 | 57 | 1017.9 |
| 20260509114003 | 56 | 289 | 0.0 | 1.7 | 0.00 | 0.00 | 0.00 | 56 | 1017.9 |
| 20260509113503 | 56 | 292 | 0.0 | 0.9 | 0.00 | 0.00 | 0.00 | 57 | 1017.9 |
| 20260509113003 | 55 | 291 | 0.0 | 1.7 | 0.00 | 0.00 | 0.00 | 57 | 1017.9 |
| 20260509112503 | 55 | 289 | 0.0 | 0.9 | 0.00 | 0.00 | 0.00 | 56 | 1017.8 |
| 20260509112003 | 56 | 290 | 0.9 | 1.7 | 0.00 | 0.00 | 0.00 | 55 | 1017.9 |
| 20260509111002 | 56 | 278 | 0.0 | 1.7 | 0.00 | 0.00 | 0.00 | 54 | 1018.0 |
| 20260509110503 | 56 | 274 | 0.9 | 1.7 | 0.00 | 0.00 | 0.00 | 55 | 1018.1 |
| 20260509110003 | 56 | 268 | 0.9 | 1.7 | 0.00 | 0.00 | 0.00 | 54 | 1018.0 |
| 20260509105003 | 56 | 262 | 0.9 | 1.7 | 0.00 | 0.00 | 0.00 | 55 | 1018.1 |
| 20260509104502 | 54 | 249 | 0.9 | 2.6 | 0.00 | 0.00 | 0.00 | 55 | 1018.2 |
| 20260509103503 | 55 | 253 | 0.0 | 1.7 | 0.00 | 0.00 | 0.00 | 54 | 1018.2 |
| 20260509103003 | 56 | 0 | 0.0 | 0.0 | 0.00 | 0.00 | 0.00 | 54 | 1018.1 |
| 20260509102503 | 58 | 0 | 0.0 | 0.0 | 0.00 | 0.00 | 0.00 | 51 | 1018.1 |
| 20260509101502 | 59 | 233 | 1.7 | 3.5 | 0.00 | 0.00 | 0.00 | 50 | 1018.1 |
| 20260509101003 | 59 | 234 | 0.9 | 6.1 | 0.00 | 0.00 | 0.00 | 49 | 1018.2 |
| 20260509100502 | 60 | 228 | 0.9 | 2.6 | 0.00 | 0.00 | 0.00 | 48 | 1018.2 |
| 20260509095503 | 60 | 97 | 0.0 | 2.6 | 0.00 | 0.00 | 0.00 | 46 | 1018.2 |
| 20260509095003 | 59 | 82 | 0.0 | 1.7 | 0.00 | 0.00 | 0.00 | 47 | 1018.2 |
| 20260509094003 | 59 | 0 | 0.0 | 0.0 | 0.00 | 0.00 | 0.00 | 46 | 1018.4 |
| 20260509093503 | 59 | 0 | 0.0 | 0.0 | 0.00 | 0.00 | 0.00 | 45 | 1018.3 |
| 20260509093003 | 59 | 0 | 0.0 | 0.0 | 0.00 | 0.00 | 0.00 | 45 | 1018.3 |
| 20260509092503 | 60 | 0 | 0.0 | 0.0 | 0.00 | 0.00 | 0.00 | 43 | 1018.3 |
| 20260509092002 | 60 | 57 | 0.0 | 0.9 | 0.00 | 0.00 | 0.00 | 43 | 1018.3 |
| 20260509091503 | 60 | 0 | 0.0 | 0.0 | 0.00 | 0.00 | 0.00 | 43 | 1018.4 |
| 20260509091002 | 60 | 66 | 0.0 | 1.7 | 0.00 | 0.00 | 0.00 | 42 | 1018.4 |
| 20260509090003 | 61 | 78 | 0.0 | 1.7 | 0.00 | 0.00 | 0.00 | 42 | 1018.4 |
| 20260509085503 | 60 | 0 | 0.0 | 0.0 | 0.00 | 0.00 | 0.00 | 41 | 1018.4 |
| 20260509085003 | 60 | 0 | 0.0 | 0.0 | 0.00 | 0.00 | 0.00 | 41 | 1018.4 |
| 20260509084503 | 60 | 0 | 0.0 | 0.0 | 0.00 | 0.00 | 0.00 | 42 | 1018.4 |
| 20260509084002 | 60 | 4 | 0.0 | 1.7 | 0.00 | 0.00 | 0.00 | 41 | 1018.4 |
| 20260509083503 | 60 | 7 | 0.0 | 2.6 | 0.00 | 0.00 | 0.00 | 41 | 1018.4 |
| 20260509083002 | 60 | 20 | 0.0 | 0.9 | 0.00 | 0.00 | 0.00 | 43 | 1018.4 |
| 20260509082504 | 60 | 15 | 0.9 | 1.7 | 0.00 | 0.00 | 0.00 | 44 | 1018.5 |
| 20260509082003 | 60 | 5 | 0.9 | 1.7 | 0.00 | 0.00 | 0.00 | 44 | 1018.5 |
| 20260509081003 | 61 | 321 | 0.0 | 0.9 | 0.00 | 0.00 | 0.00 | 40 | 1018.5 |
| 20260509080004 | 60 | 0 | 0.0 | 0.0 | 0.00 | 0.00 | 0.00 | 43 | 1018.7 |
| 20260509075503 | 60 | 0 | 0.9 | 0.0 | 0.00 | 0.00 | 0.00 | 42 | 1018.7 |
| 20260509074502 | 61 | 226 | 1.7 | 3.5 | 0.00 | 0.00 | 0.00 | 42 | 1018.8 |
| 20260509074003 | 61 | 227 | 2.6 | 3.5 | 0.00 | 0.00 | 0.00 | 42 | 1018.8 |
| 20260509073503 | 62 | 291 | 1.7 | 3.5 | 0.00 | 0.00 | 0.00 | 41 | 1018.8 |
| 20260509073003 | 62 | 247 | 1.7 | 4.3 | 0.00 | 0.00 | 0.00 | 40 | 1018.9 |
| 20260509071504 | 61 | 244 | 1.7 | 2.6 | 0.00 | 0.00 | 0.00 | 43 | 1018.9 |
| 20260509071003 | 61 | 244 | 1.7 | 2.6 | 0.00 | 0.00 | 0.00 | 44 | 1018.9 |
| 20260509070503 | 61 | 256 | 1.7 | 2.6 | 0.00 | 0.00 | 0.00 | 44 | 1018.9 |
| 20260509070004 | 60 | 249 | 0.9 | 2.6 | 0.00 | 0.00 | 0.00 | 42 | 1018.9 |
| 20260509065003 | 61 | 0 | 0.9 | 0.0 | 0.00 | 0.00 | 0.00 | 46 | 1019.1 |
| 20260509064503 | 61 | 0 | 0.0 | 0.0 | 0.00 | 0.00 | 0.00 | 44 | 1019.0 |
| 20260509064003 | 61 | 223 | 0.9 | 2.6 | 0.00 | 0.00 | 0.00 | 44 | 1018.9 |
| 20260509063503 | 61 | 262 | 1.7 | 1.7 | 0.00 | 0.00 | 0.00 | 43 | 1019.0 |
| 20260509063003 | 61 | 262 | 2.6 | 1.7 | 0.00 | 0.00 | 0.00 | 42 | 1018.9 |
| 20260509062503 | 61 | 263 | 2.6 | 3.5 | 0.00 | 0.00 | 0.00 | 44 | 1018.9 |
| 20260509062003 | 62 | 264 | 2.6 | 5.2 | 0.00 | 0.00 | 0.00 | 45 | 1019.0 |
| 20260509061503 | 62 | 266 | 2.6 | 3.5 | 0.00 | 0.00 | 0.00 | 47 | 1019.1 |
| 20260509061003 | 62 | 265 | 1.7 | 3.5 | 0.00 | 0.00 | 0.00 | 47 | 1019.2 |
| 20260509060503 | 62 | 252 | 1.7 | 5.2 | 0.00 | 0.00 | 0.00 | 47 | 1019.1 |
| 20260509060005 | 62 | 249 | 2.6 | 2.6 | 0.00 | 0.00 | 0.00 | 47 | 1019.0 |
| 20260509055503 | 63 | 264 | 2.6 | 2.6 | 0.00 | 0.00 | 0.00 | 47 | 1019.1 |
| 20260509055004 | 63 | 265 | 1.7 | 5.2 | 0.00 | 0.00 | 0.00 | 47 | 1019.0 |
| 20260509054503 | 64 | 273 | 0.9 | 3.5 | 0.00 | 0.00 | 0.00 | 46 | 1019.1 |
| 20260509053503 | 64 | 284 | 0.0 | 0.9 | 0.00 | 0.00 | 0.00 | 45 | 1019.2 |
| 20260509053003 | 64 | 0 | 1.7 | 0.0 | 0.00 | 0.00 | 0.00 | 43 | 1019.2 |
| 20260509052003 | 64 | 280 | 3.5 | 3.5 | 0.00 | 0.00 | 0.00 | 42 | 1019.1 |
| 20260509051503 | 64 | 277 | 3.5 | 5.2 | 0.00 | 0.00 | 0.00 | 43 | 1019.2 |
| 20260509050003 | 64 | 277 | 5.2 | 5.2 | 0.00 | 0.00 | 0.00 | 44 | 1019.1 |
| 20260509045503 | 64 | 280 | 6.1 | 6.1 | 0.00 | 0.00 | 0.00 | 44 | 1019.1 |
| 20260509045003 | 64 | 270 | 5.2 | 8.7 | 0.00 | 0.00 | 0.00 | 44 | 1019.0 |
| 20260509043503 | 64 | 279 | 5.2 | 7.0 | 0.00 | 0.00 | 0.00 | 48 | 1019.0 |
| 20260509043003 | 65 | 276 | 6.1 | 6.1 | 0.00 | 0.00 | 0.00 | 49 | 1019.0 |
| 20260509042503 | 65 | 267 | 5.2 | 9.6 | 0.00 | 0.00 | 0.00 | 49 | 1018.9 |
| 20260509042003 | 65 | 274 | 4.3 | 7.8 | 0.00 | 0.00 | 0.00 | 49 | 1018.9 |
| 20260509041003 | 65 | 279 | 3.5 | 6.1 | 0.00 | 0.00 | 0.00 | 49 | 1018.9 |
| 20260509040503 | 66 | 257 | 1.7 | 7.8 | 0.00 | 0.00 | 0.00 | 49 | 1018.8 |
| 20260509040004 | 66 | 266 | 0.9 | 3.5 | 0.00 | 0.00 | 0.00 | 49 | 1018.7 |
| 20260509035503 | 66 | 0 | 0.9 | 0.0 | 0.00 | 0.00 | 0.00 | 48 | 1018.7 |
| 20260509035003 | 66 | 259 | 2.6 | 2.6 | 0.00 | 0.00 | 0.00 | 48 | 1018.7 |
| 20260509034503 | 66 | 263 | 3.5 | 6.1 | 0.00 | 0.00 | 0.00 | 48 | 1018.6 |
| 20260509034003 | 66 | 252 | 3.5 | 4.3 | 0.00 | 0.00 | 0.00 | 48 | 1018.7 |
| 20260509033503 | 66 | 251 | 4.3 | 6.1 | 0.00 | 0.00 | 0.00 | 48 | 1018.7 |
| 20260509033003 | 67 | 252 | 3.5 | 7.8 | 0.00 | 0.00 | 0.00 | 48 | 1018.6 |
| 20260509032503 | 67 | 271 | 2.6 | 8.7 | 0.00 | 0.00 | 0.00 | 48 | 1018.5 |
| 20260509032004 | 67 | 292 | 2.6 | 3.5 | 0.00 | 0.00 | 0.00 | 48 | 1018.4 |
| 20260509031504 | 67 | 259 | 4.3 | 4.3 | 0.00 | 0.00 | 0.00 | 48 | 1018.4 |
| 20260509031003 | 67 | 254 | 5.2 | 7.0 | 0.00 | 0.00 | 0.00 | 48 | 1018.4 |
| 20260509030503 | 67 | 259 | 4.3 | 10.4 | 0.00 | 0.00 | 0.00 | 48 | 1018.3 |
| 20260509025504 | 68 | 249 | 5.2 | 6.1 | 0.00 | 0.00 | 0.00 | 47 | 1018.2 |
| 20260509025003 | 68 | 239 | 4.3 | 10.4 | 0.00 | 0.00 | 0.00 | 47 | 1018.1 |
| 20260509024503 | 68 | 257 | 5.2 | 7.0 | 0.00 | 0.00 | 0.00 | 47 | 1018.2 |
| 20260509024003 | 68 | 254 | 6.1 | 9.6 | 0.00 | 0.00 | 0.00 | 47 | 1018.1 |
| 20260509023503 | 69 | 245 | 5.2 | 9.6 | 0.00 | 0.00 | 0.00 | 46 | 1018.0 |
| 20260509023003 | 69 | 250 | 5.2 | 7.0 | 0.00 | 0.00 | 0.00 | 46 | 1018.0 |
| 20260509022503 | 70 | 235 | 6.1 | 8.7 | 0.00 | 0.00 | 0.00 | 45 | 1018.0 |
| 20260509022003 | 70 | 243 | 5.2 | 9.6 | 0.00 | 0.00 | 0.00 | 45 | 1018.0 |
| 20260509021503 | 71 | 244 | 5.2 | 8.7 | 0.00 | 0.00 | 0.00 | 44 | 1017.9 |
| 20260509021003 | 71 | 242 | 6.1 | 7.8 | 0.00 | 0.00 | 0.00 | 44 | 1017.9 |
| 20260509020004 | 73 | 256 | 7.0 | 10.4 | 0.00 | 0.00 | 0.00 | 42 | 1017.8 |
| 20260509015503 | 73 | 247 | 6.1 | 10.4 | 0.00 | 0.00 | 0.00 | 42 | 1017.9 |
| 20260509015003 | 74 | 258 | 4.3 | 9.6 | 0.00 | 0.00 | 0.00 | 42 | 1017.8 |
| 20260509014503 | 74 | 269 | 5.2 | 7.0 | 0.00 | 0.00 | 0.00 | 42 | 1017.8 |
| 20260509014003 | 74 | 302 | 7.0 | 7.8 | 0.00 | 0.00 | 0.00 | 40 | 1017.8 |
| 20260509013003 | 74 | 280 | 7.0 | 9.6 | 0.00 | 0.00 | 0.00 | 39 | 1017.7 |
| 20260509012503 | 74 | 292 | 7.8 | 9.6 | 0.00 | 0.00 | 0.00 | 39 | 1017.6 |
| 20260509012004 | 74 | 289 | 7.8 | 9.6 | 0.00 | 0.00 | 0.00 | 39 | 1017.6 |
| 20260509011505 | 74 | 277 | 7.8 | 14.8 | 0.00 | 0.00 | 0.00 | 39 | 1017.7 |
| 20260509011004 | 74 | 294 | 8.7 | 11.3 | 0.00 | 0.00 | 0.00 | 40 | 1017.7 |
| 20260509010504 | 75 | 282 | 7.8 | 13.0 | 0.00 | 0.00 | 0.00 | 39 | 1017.7 |
| 20260509010003 | 75 | 270 | 6.1 | 15.6 | 0.00 | 0.00 | 0.00 | 39 | 1017.7 |
| 20260509005503 | 75 | 284 | 7.0 | 9.6 | 0.00 | 0.00 | 0.00 | 40 | 1017.9 |
| 20260509003503 | 75 | 314 | 8.7 | 13.9 | 0.00 | 0.00 | 0.00 | 41 | 1017.9 |
| 20260509003003 | 75 | 315 | 9.6 | 15.6 | 0.00 | 0.00 | 0.00 | 41 | 1017.9 |
| 20260509002503 | 74 | 310 | 10.4 | 11.3 | 0.00 | 0.00 | 0.00 | 41 | 1017.9 |
| 20260509002003 | 74 | 303 | 10.4 | 16.5 | 0.00 | 0.00 | 0.00 | 40 | 1017.8 |
| 20260509001003 | 75 | 318 | 9.6 | 14.8 | 0.00 | 0.00 | 0.00 | 41 | 1017.9 |
| 20260509000503 | 75 | 323 | 9.6 | 16.5 | 0.00 | 0.00 | 0.00 | 42 | 1017.9 |
| 20260509000004 | 74 | 310 | 10.4 | 12.2 | 0.00 | 0.00 | 0.00 | 42 | 1017.9 |
| 20260508235503 | 74 | 317 | 10.4 | 13.0 | 0.00 | 0.00 | 0.00 | 42 | 1017.9 |
| 20260508235003 | 75 | 310 | 10.4 | 15.6 | 0.00 | 0.00 | 0.00 | 41 | 1017.9 |
| 20260508234504 | 74 | 315 | 10.4 | 14.8 | 0.00 | 0.00 | 0.00 | 42 | 1017.9 |
| 20260508234003 | 74 | 321 | 9.6 | 17.4 | 0.00 | 0.00 | 0.00 | 41 | 1018.1 |
| 20260508233503 | 74 | 310 | 10.4 | 16.5 | 0.00 | 0.00 | 0.00 | 43 | 1018.0 |
| 20260508232503 | 74 | 315 | 12.2 | 16.5 | 0.00 | 0.00 | 0.00 | 42 | 1018.1 |
| 20260508232004 | 74 | 312 | 11.3 | 17.4 | 0.00 | 0.00 | 0.00 | 42 | 1018.1 |
| 20260508231503 | 74 | 310 | 10.4 | 16.5 | 0.00 | 0.00 | 0.00 | 41 | 1018.3 |
| 20260508231003 | 74 | 314 | 10.4 | 14.8 | 0.00 | 0.00 | 0.00 | 42 | 1018.3 |
| 20260508230504 | 74 | 320 | 10.4 | 19.1 | 0.00 | 0.00 | 0.00 | 42 | 1018.4 |
| 20260508230003 | 74 | 297 | 11.3 | 13.0 | 0.00 | 0.00 | 0.00 | 42 | 1018.4 |
| 20260508225504 | 74 | 299 | 12.2 | 15.6 | 0.00 | 0.00 | 0.00 | 43 | 1018.3 |
| 20260508224503 | 74 | 319 | 10.4 | 17.4 | 0.00 | 0.00 | 0.00 | 43 | 1018.4 |
| 20260508224003 | 74 | 318 | 10.4 | 16.5 | 0.00 | 0.00 | 0.00 | 45 | 1018.4 |
| 20260508223504 | 74 | 311 | 10.4 | 15.6 | 0.00 | 0.00 | 0.00 | 45 | 1018.4 |
| 20260508223003 | 73 | 310 | 10.4 | 13.9 | 0.00 | 0.00 | 0.00 | 46 | 1018.5 |
| 20260508222504 | 74 | 320 | 9.6 | 15.6 | 0.00 | 0.00 | 0.00 | 46 | 1018.4 |
| 20260508222003 | 74 | 318 | 9.6 | 16.5 | 0.00 | 0.00 | 0.00 | 45 | 1018.5 |
| 20260508221504 | 74 | 309 | 8.7 | 13.0 | 0.00 | 0.00 | 0.00 | 46 | 1018.7 |
| 20260508221004 | 74 | 311 | 7.0 | 16.5 | 0.00 | 0.00 | 0.00 | 46 | 1018.7 |
| 20260508220503 | 73 | 324 | 8.7 | 9.6 | 0.00 | 0.00 | 0.00 | 49 | 1019.0 |
| 20260508220004 | 73 | 312 | 10.4 | 14.8 | 0.00 | 0.00 | 0.00 | 48 | 1018.9 |
| 20260508215503 | 73 | 315 | 11.3 | 13.9 | 0.00 | 0.00 | 0.00 | 48 | 1018.8 |
| 20260508214504 | 72 | 317 | 11.3 | 15.6 | 0.00 | 0.00 | 0.00 | 50 | 1019.0 |
| 20260508214003 | 72 | 307 | 10.4 | 16.5 | 0.00 | 0.00 | 0.00 | 51 | 1019.1 |
| 20260508213504 | 72 | 317 | 10.4 | 16.5 | 0.00 | 0.00 | 0.00 | 52 | 1019.0 |
| 20260508213003 | 72 | 307 | 10.4 | 15.6 | 0.00 | 0.00 | 0.00 | 51 | 1019.2 |
| 20260508212502 | 72 | 310 | 10.4 | 13.9 | 0.00 | 0.00 | 0.00 | 52 | 1019.2 |
| 20260508212002 | 73 | 308 | 9.6 | 13.9 | 0.00 | 0.00 | 0.00 | 52 | 1019.2 |
| 20260508211502 | 72 | 303 | 9.6 | 15.6 | 0.00 | 0.00 | 0.00 | 52 | 1019.2 |
| 20260508211003 | 72 | 304 | 10.4 | 14.8 | 0.00 | 0.00 | 0.00 | 53 | 1019.3 |
| 20260508210502 | 72 | 318 | 10.4 | 13.9 | 0.00 | 0.00 | 0.00 | 52 | 1019.3 |
| 20260508210002 | 72 | 302 | 11.3 | 15.6 | 0.00 | 0.00 | 0.00 | 52 | 1019.4 |
| 20260508205002 | 72 | 319 | 12.2 | 15.6 | 0.00 | 0.00 | 0.00 | 53 | 1019.4 |
| 20260508204502 | 72 | 319 | 11.3 | 18.2 | 0.00 | 0.00 | 0.00 | 53 | 1019.6 |
| 20260508204002 | 72 | 307 | 10.4 | 16.5 | 0.00 | 0.00 | 0.00 | 53 | 1019.5 |
| 20260508203504 | 72 | 317 | 10.4 | 14.8 | 0.00 | 0.00 | 0.00 | 54 | 1019.5 |
| 20260508203002 | 71 | 315 | 10.4 | 15.6 | 0.00 | 0.00 | 0.00 | 54 | 1019.6 |
| 20260508202502 | 72 | 314 | 11.3 | 17.4 | 0.00 | 0.00 | 0.00 | 54 | 1019.5 |
| 20260508201502 | 72 | 308 | 9.6 | 14.8 | 0.00 | 0.00 | 0.00 | 54 | 1019.5 |
| 20260508201002 | 72 | 307 | 10.4 | 15.6 | 0.00 | 0.00 | 0.00 | 54 | 1019.6 |
| 20260508200502 | 72 | 314 | 10.4 | 13.9 | 0.00 | 0.00 | 0.00 | 54 | 1019.5 |
| 20260508200002 | 72 | 318 | 9.6 | 17.4 | 0.00 | 0.00 | 0.00 | 54 | 1019.6 |
| 20260508195502 | 71 | 302 | 10.4 | 13.0 | 0.00 | 0.00 | 0.00 | 53 | 1019.7 |
| 20260508195002 | 71 | 315 | 11.3 | 15.6 | 0.00 | 0.00 | 0.00 | 54 | 1019.7 |
| 20260508194503 | 71 | 321 | 11.3 | 16.5 | 0.00 | 0.00 | 0.00 | 52 | 1019.6 |
| 20260508194002 | 72 | 313 | 10.4 | 17.4 | 0.00 | 0.00 | 0.00 | 51 | 1019.7 |
| 20260508193502 | 72 | 313 | 10.4 | 17.4 | 0.00 | 0.00 | 0.00 | 49 | 1019.5 |
| 20260508193003 | 72 | 307 | 11.3 | 14.8 | 0.00 | 0.00 | 0.00 | 50 | 1019.7 |
| 20260508192502 | 72 | 318 | 10.4 | 14.8 | 0.00 | 0.00 | 0.00 | 49 | 1019.6 |
| 20260508192003 | 72 | 320 | 9.6 | 14.8 | 0.00 | 0.00 | 0.00 | 51 | 1019.8 |
| 20260508191002 | 71 | 312 | 9.6 | 13.9 | 0.00 | 0.00 | 0.00 | 52 | 1019.8 |
| 20260508190502 | 71 | 317 | 10.4 | 13.9 | 0.00 | 0.00 | 0.00 | 53 | 1019.9 |
| 20260508190003 | 71 | 318 | 10.4 | 17.4 | 0.00 | 0.00 | 0.00 | 53 | 1020.0 |
| 20260508185504 | 71 | 320 | 9.6 | 14.8 | 0.00 | 0.00 | 0.00 | 52 | 1019.9 |
| 20260508185002 | 71 | 314 | 9.6 | 16.5 | 0.00 | 0.00 | 0.00 | 53 | 1020.0 |
| 20260508184502 | 71 | 312 | 8.7 | 14.8 | 0.00 | 0.00 | 0.00 | 54 | 1020.2 |
| 20260508184002 | 71 | 316 | 9.6 | 14.8 | 0.00 | 0.00 | 0.00 | 54 | 1020.2 |
| 20260508183503 | 71 | 313 | 9.6 | 11.3 | 0.00 | 0.00 | 0.00 | 55 | 1020.2 |
| 20260508183002 | 71 | 316 | 9.6 | 13.9 | 0.00 | 0.00 | 0.00 | 55 | 1020.3 |
| 20260508182503 | 71 | 318 | 8.7 | 12.2 | 0.00 | 0.00 | 0.00 | 55 | 1020.3 |
| 20260508182003 | 71 | 319 | 6.1 | 13.0 | 0.00 | 0.00 | 0.00 | 55 | 1020.4 |
| 20260508181504 | 70 | 302 | 5.2 | 11.3 | 0.00 | 0.00 | 0.00 | 57 | 1020.2 |
| 20260508181003 | 70 | 320 | 5.2 | 10.4 | 0.00 | 0.00 | 0.00 | 55 | 1020.2 |
| 20260508180502 | 69 | 322 | 6.1 | 10.4 | 0.00 | 0.00 | 0.00 | 60 | 1020.2 |
| 20260508180002 | 69 | 324 | 7.0 | 10.4 | 0.00 | 0.00 | 0.00 | 62 | 1020.2 |
| 20260508174502 | 68 | 316 | 6.1 | 11.3 | 0.00 | 0.00 | 0.00 | 64 | 1020.3 |
| 20260508174002 | 68 | 322 | 6.1 | 11.3 | 0.00 | 0.00 | 0.00 | 65 | 1020.5 |
| 20260508173503 | 68 | 327 | 5.2 | 11.3 | 0.00 | 0.00 | 0.00 | 64 | 1020.4 |
| 20260508173003 | 68 | 332 | 6.1 | 7.8 | 0.00 | 0.00 | 0.00 | 65 | 1020.4 |
| 20260508172502 | 68 | 323 | 6.1 | 10.4 | 0.00 | 0.00 | 0.00 | 64 | 1020.4 |
| 20260508171502 | 67 | 324 | 6.1 | 10.4 | 0.00 | 0.00 | 0.00 | 64 | 1020.3 |
| 20260508171003 | 67 | 324 | 4.3 | 9.6 | 0.00 | 0.00 | 0.00 | 63 | 1020.4 |
| 20260508170502 | 67 | 334 | 4.3 | 7.0 | 0.00 | 0.00 | 0.00 | 62 | 1020.4 |
| 20260508170002 | 67 | 326 | 5.2 | 8.7 | 0.00 | 0.00 | 0.00 | 61 | 1020.5 |
| 20260508165502 | 67 | 327 | 5.2 | 8.7 | 0.00 | 0.00 | 0.00 | 61 | 1020.5 |
| 20260508165003 | 67 | 324 | 4.3 | 8.7 | 0.00 | 0.00 | 0.00 | 62 | 1020.5 |
| 20260508164502 | 67 | 322 | 4.3 | 9.6 | 0.00 | 0.00 | 0.00 | 61 | 1020.6 |
| 20260508164002 | 67 | 324 | 5.2 | 7.0 | 0.00 | 0.00 | 0.00 | 60 | 1020.5 |
| 20260508163503 | 67 | 319 | 4.3 | 10.4 | 0.00 | 0.00 | 0.00 | 60 | 1020.5 |
| 20260508163004 | 67 | 326 | 4.3 | 8.7 | 0.00 | 0.00 | 0.00 | 60 | 1020.5 |
| 20260508162502 | 66 | 323 | 3.5 | 7.8 | 0.00 | 0.00 | 0.00 | 61 | 1020.6 |
| 20260508162003 | 66 | 321 | 3.5 | 8.7 | 0.00 | 0.00 | 0.00 | 63 | 1020.6 |
| 20260508161502 | 66 | 323 | 3.5 | 4.3 | 0.00 | 0.00 | 0.00 | 63 | 1020.7 |
| 20260508161003 | 66 | 326 | 2.6 | 7.8 | 0.00 | 0.00 | 0.00 | 64 | 1020.7 |
| 20260508160503 | 65 | 350 | 2.6 | 4.3 | 0.00 | 0.00 | 0.00 | 64 | 1020.7 |
| 20260508160003 | 65 | 328 | 2.6 | 5.2 | 0.00 | 0.00 | 0.00 | 66 | 1020.8 |
| 20260508155502 | 65 | 331 | 0.9 | 5.2 | 0.00 | 0.00 | 0.00 | 67 | 1020.8 |
| 20260508155003 | 64 | 322 | 0.9 | 4.3 | 0.00 | 0.00 | 0.00 | 68 | 1020.8 |
| 20260508154503 | 64 | 318 | 0.9 | 3.5 | 0.00 | 0.00 | 0.00 | 69 | 1020.8 |
| 20260508154002 | 64 | 326 | 1.7 | 1.7 | 0.00 | 0.00 | 0.00 | 71 | 1020.8 |
| 20260508153502 | 63 | 322 | 1.7 | 3.5 | 0.00 | 0.00 | 0.00 | 71 | 1020.8 |
| 20260508152503 | 63 | 330 | 2.6 | 3.5 | 0.00 | 0.00 | 0.00 | 73 | 1020.9 |
| 20260508152002 | 62 | 330 | 1.7 | 4.3 | 0.00 | 0.00 | 0.00 | 74 | 1020.9 |
| 20260508151504 | 62 | 336 | 1.7 | 2.6 | 0.00 | 0.00 | 0.00 | 76 | 1020.9 |
| 20260508151002 | 61 | 341 | 0.9 | 2.6 | 0.00 | 0.00 | 0.00 | 78 | 1021.0 |
| 20260508150004 | 60 | 5 | 0.9 | 1.7 | 0.00 | 0.00 | 0.00 | 80 | 1021.1 |
| 20260508145502 | 59 | 6 | 0.9 | 2.6 | 0.00 | 0.00 | 0.00 | 81 | 1020.9 |
| 20260508145003 | 59 | 29 | 0.0 | 1.7 | 0.00 | 0.00 | 0.00 | 82 | 1020.9 |
| 20260508144502 | 58 | 32 | 0.9 | 1.7 | 0.00 | 0.00 | 0.00 | 82 | 1020.9 |
| 20260508144003 | 58 | 33 | 0.9 | 2.6 | 0.00 | 0.00 | 0.00 | 83 | 1020.8 |
| 20260508143503 | 57 | 35 | 0.9 | 1.7 | 0.00 | 0.00 | 0.00 | 84 | 1020.7 |
| 20260508143003 | 56 | 26 | 0.9 | 2.6 | 0.00 | 0.00 | 0.00 | 84 | 1020.7 |
| 20260508142002 | 56 | 279 | 0.0 | 0.9 | 0.00 | 0.00 | 0.00 | 85 | 1020.7 |